Total_Precipitation_Accumulation
0.13 0.13 0.11 0.09 0.08 0.09 0.12 0.15 0.16 0.12 0.11 0.15 0.19 0.19 0.18 0.14 0.14 0.18 0.17 0.14 0.13 0.12 0.12 0.11 0.18 0.52 0.57 0.34 0.04 0.01 0.01 0.02 0.13 0.34 0.10 0.01 0.00 0.01 0.01 0.00 0.01 0.00 0.00 0.00 0.00 0.00 0.00
0.10 0.09 0.09 0.08 0.07 0.10 0.16 0.17 0.16 0.13 0.16 0.18 0.18 0.20 0.16 0.15 0.20 0.18 0.15 0.15 0.14 0.15 0.14 0.14 0.23 0.47 0.46 0.18 0.01 0.00 0.02 0.04 0.06 0.19 0.15 0.05 0.01 0.01 0.01 0.01 0.03 0.00 0.00 0.00 0.00 0.00 0.00
0.08 0.08 0.09 0.09 0.11 0.17 0.18 0.18 0.17 0.20 0.22 0.21 0.22 0.21 0.16 0.18 0.24 0.22 0.16 0.20 0.22 0.18 0.22 0.29 0.32 0.46 0.30 0.06 0.02 0.01 0.03 0.13 0.11 0.13 0.17 0.10 0.04 0.10 0.08 0.05 0.01 0.02 0.03 0.01 0.00 0.00 0.00
0.07 0.09 0.09 0.09 0.13 0.16 0.16 0.16 0.19 0.20 0.19 0.23 0.26 0.22 0.21 0.23 0.27 0.33 0.30 0.35 0.40 0.44 0.43 0.39 0.44 0.47 0.23 0.01 0.04 0.02 0.04 0.13 0.24 0.31 0.26 0.28 0.08 0.03 0.06 0.07 0.05 0.09 0.11 0.03 0.00 0.00 0.00
0.08 0.10 0.10 0.11 0.15 0.17 0.18 0.18 0.22 0.19 0.22 0.28 0.30 0.24 0.29 0.34 0.39 0.41 0.40 0.31 0.34 0.36 0.53 0.69 0.66 0.39 0.15 0.00 0.02 0.00 0.03 0.10 0.12 0.34 0.50 0.39 0.20 0.08 0.08 0.13 0.15 0.16 0.06 0.02 0.00 0.00 0.00
0.10 0.08 0.07 0.10 0.15 0.17 0.20 0.23 0.22 0.23 0.27 0.32 0.31 0.28 0.35 0.35 0.43 0.55 0.60 0.65 0.55 0.57 0.67 1.07 0.78 0.52 0.09 0.01 0.01 0.01 0.04 0.05 0.07 0.29 0.39 0.32 0.33 0.17 0.11 0.18 0.15 0.06 0.05 0.03 0.01 0.00 0.01
0.10 0.08 0.07 0.12 0.19 0.24 0.25 0.23 0.21 0.23 0.29 0.36 0.39 0.31 0.29 0.35 0.45 0.51 0.77 1.12 0.90 0.84 1.00 0.89 0.37 0.20 0.01 0.03 0.03 0.02 0.02 0.03 0.21 0.36 0.49 0.32 0.21 0.21 0.09 0.06 0.06 0.05 0.07 0.04 0.01 0.01 0.02
0.09 0.09 0.09 0.20 0.26 0.24 0.26 0.26 0.26 0.27 0.34 0.36 0.37 0.30 0.32 0.35 0.50 0.88 1.20 1.21 0.72 0.59 0.78 0.55 0.12 0.15 0.01 0.03 0.06 0.02 0.01 0.03 0.09 0.14 0.33 0.48 0.21 0.07 0.16 0.09 0.09 0.11 0.12 0.04 0.03 0.02 0.04
0.12 0.15 0.24 0.31 0.23 0.25 0.28 0.31 0.40 0.53 0.51 0.39 0.30 0.34 0.41 0.51 0.70 1.02 1.02 0.59 0.36 0.74 1.12 0.81 0.30 0.23 0.04 0.04 0.10 0.03 0.01 0.03 0.06 0.09 0.13 0.23 0.10 0.07 0.21 0.22 0.15 0.11 0.14 0.10 0.04 0.06 0.05
0.12 0.18 0.27 0.26 0.32 0.38 0.41 0.43 0.47 0.52 0.55 0.51 0.41 0.44 0.64 0.87 1.20 0.83 0.72 0.46 0.60 1.08 1.31 0.94 0.49 0.25 0.12 0.16 0.20 0.01 0.02 0.07 0.10 0.10 0.13 0.16 0.02 0.12 0.16 0.42 0.16 0.12 0.07 0.11 0.17 0.15 0.04
0.28 0.28 0.23 0.25 0.30 0.39 0.49 0.54 0.57 0.50 0.45 0.63 0.81 0.70 0.59 1.09 1.12 0.93 0.67 0.42 0.81 1.45 1.20 0.76 0.53 0.23 0.14 0.13 0.11 0.06 0.04 0.12 0.10 0.10 0.23 0.22 0.03 0.11 0.17 0.34 0.13 0.19 0.07 0.11 0.23 0.35 0.35
0.29 0.26 0.31 0.37 0.42 0.43 0.38 0.38 0.47 0.57 0.71 0.96 0.90 0.88 0.80 0.85 0.88 0.84 0.77 0.54 1.26 1.49 1.32 1.20 0.62 0.34 0.23 0.11 0.07 0.12 0.12 0.13 0.19 0.44 0.35 0.12 0.08 0.20 0.17 0.18 0.19 0.18 0.24 0.26 0.47 0.48 0.69
0.24 0.33 0.43 0.45 0.46 0.44 0.42 0.39 0.43 0.58 0.84 0.85 0.86 1.10 1.12 0.67 0.73 0.73 1.23 1.06 1.41 0.93 0.78 0.90 0.50 0.23 0.11 0.10 0.11 0.20 0.30 0.19 0.35 0.69 0.61 0.46 0.31 0.29 0.22 0.33 0.56 0.47 0.59 0.79 0.72 0.89 0.42
0.31 0.38 0.47 0.49 0.51 0.53 0.60 0.57 0.54 0.58 0.72 0.78 1.09 1.19 1.27 0.91 0.79 0.85 1.69 1.10 0.82 0.50 0.74 0.58 0.18 0.23 0.29 0.13 0.14 0.21 0.40 0.20 0.13 0.33 0.48 0.31 0.28 0.28 0.25 0.33 0.69 0.59 0.55 0.61 0.37 0.28 0.17
0.35 0.45 0.51 0.50 0.56 0.63 0.59 0.52 0.46 0.59 0.67 0.83 1.36 1.64 1.54 1.36 1.03 1.14 1.33 0.94 0.65 0.76 0.85 0.37 0.27 0.30 0.32 0.11 0.13 0.22 0.18 0.12 0.03 0.10 0.39 0.27 0.26 0.21 0.19 0.13 0.42 0.66 0.63 0.35 0.50 0.18 0.27
0.38 0.46 0.57 0.63 0.67 0.78 0.61 0.54 0.67 0.71 0.99 1.12 1.79 2.23 1.33 1.12 1.27 1.20 1.09 0.81 0.45 0.37 0.28 0.16 0.23 0.10 0.08 0.04 0.08 0.07 0.05 0.01 0.00 0.01 0.17 0.28 0.40 0.46 0.38 0.32 0.41 0.52 0.31 0.48 1.03 0.61 0.19
0.41 0.47 0.50 0.72 0.80 0.78 0.69 0.67 0.75 0.98 1.15 1.54 1.87 2.06 1.29 1.18 1.75 1.67 1.35 0.94 0.30 0.17 0.14 0.13 0.05 0.02 0.01 0.01 0.01 0.01 0.01 0.00 0.00 0.00 0.14 0.33 0.55 0.66 0.85 0.53 0.34 0.56 0.58 0.37 0.51 0.43 0.25
0.38 0.42 0.47 0.59 0.69 0.64 0.82 0.73 0.72 1.01 1.22 1.67 1.68 1.59 1.41 1.61 2.06 1.55 0.99 0.67 0.33 0.16 0.17 0.13 0.10 0.02 0.00 0.00 0.00 0.00 0.00 0.01 0.00 0.02 0.16 0.32 0.66 0.69 0.58 0.16 0.11 0.19 0.23 0.18 0.64 0.42 0.37
0.32 0.37 0.46 0.49 0.61 0.53 0.66 0.72 0.44 0.82 1.19 1.41 1.51 1.37 2.03 1.11 0.90 0.66 0.38 0.29 0.24 0.10 0.13 0.15 0.07 0.01 0.00 0.00 0.00 0.00 0.00 0.00 0.00 0.02 0.19 0.44 0.99 0.76 0.61 0.44 0.48 0.64 0.32 0.36 0.61 0.98 0.74
0.26 0.33 0.39 0.39 0.45 0.50 0.65 0.66 0.54 0.73 1.06 1.32 1.51 1.45 2.85 1.92 0.53 0.16 0.29 0.33 0.26 0.06 0.07 0.13 0.10 0.03 0.04 0.02 0.00 0.00 0.00 0.00 0.00 0.00 0.16 0.72 0.80 0.85 0.68 0.62 0.88 0.72 0.33 0.52 1.06 1.11 0.36
0.24 0.32 0.35 0.37 0.36 0.46 0.67 0.78 0.94 1.18 1.43 1.25 1.02 0.67 0.70 0.82 0.43 0.07 0.27 0.29 0.36 0.23 0.12 0.17 0.11 0.04 0.06 0.02 0.00 0.00 0.00 0.00 0.00 0.00 0.16 0.66 1.15 1.28 0.54 0.32 0.69 0.60 0.31 0.43 0.96 0.55 0.51
0.19 0.22 0.27 0.31 0.29 0.47 0.63 0.83 0.99 1.23 1.50 1.09 0.64 0.55 0.10 0.04 0.03 0.02 0.17 0.27 0.34 0.34 0.27 0.19 0.13 0.04 0.04 0.05 0.00 0.00 0.00 0.00 0.00 0.01 0.15 0.55 0.95 0.81 0.34 0.20 0.40 0.47 0.23 0.35 0.56 0.41 0.30
0.16 0.19 0.27 0.31 0.19 0.36 0.43 0.68 0.62 1.02 1.50 1.21 0.62 0.48 0.13 0.06 0.04 0.04 0.06 0.12 0.23 0.37 0.24 0.09 0.08 0.11 0.07 0.03 0.01 0.00 0.00 0.00 0.00 0.01 0.07 0.34 0.63 0.82 0.64 0.41 0.55 0.52 0.26 0.31 0.41 0.35 0.24
0.14 0.21 0.30 0.29 0.18 0.28 0.41 0.72 0.79 1.15 1.33 1.07 0.62 0.65 0.30 0.11 0.03 0.02 0.02 0.11 0.23 0.27 0.25 0.14 0.08 0.11 0.06 0.06 0.04 0.02 0.02 0.00 0.01 0.01 0.01 0.06 0.30 0.63 0.74 0.66 0.68 0.49 0.29 0.21 0.23 0.23 0.17
0.14 0.18 0.30 0.27 0.17 0.21 0.43 0.70 0.78 0.77 0.69 0.53 0.46 0.60 0.37 0.10 0.02 0.02 0.03 0.13 0.22 0.21 0.31 0.27 0.09 0.03 0.05 0.07 0.16 0.12 0.10 0.10 0.02 0.02 0.02 0.02 0.08 0.29 0.25 0.27 0.20 0.08 0.16 0.17 0.23 0.16 0.08
0.12 0.15 0.22 0.21 0.18 0.17 0.33 0.45 0.49 0.47 0.59 0.42 0.44 0.62 0.55 0.22 0.05 0.02 0.03 0.15 0.24 0.20 0.29 0.23 0.11 0.08 0.13 0.21 0.33 0.19 0.10 0.09 0.03 0.03 0.03 0.03 0.05 0.20 0.16 0.24 0.11 0.04 0.02 0.01 0.02 0.05 0.01
0.12 0.13 0.16 0.22 0.17 0.17 0.22 0.42 0.60 0.45 0.46 0.37 0.41 0.48 0.47 0.20 0.03 0.01 0.02 0.15 0.33 0.21 0.26 0.32 0.22 0.19 0.18 0.32 0.29 0.16 0.03 0.00 0.01 0.01 0.04 0.14 0.14 0.23 0.19 0.22 0.01 0.00 0.00 0.00 0.01 0.00 0.00
0.11 0.12 0.13 0.22 0.20 0.20 0.21 0.29 0.47 0.38 0.40 0.45 0.26 0.32 0.47 0.25 0.01 0.00 0.00 0.08 0.38 0.35 0.26 0.31 0.33 0.29 0.33 0.35 0.25 0.10 0.02 0.01 0.00 0.00 0.00 0.03 0.06 0.05 0.09 0.10 0.01 0.00 0.00 0.00 0.00 0.00 0.00
0.11 0.09 0.13 0.21 0.21 0.18 0.23 0.22 0.34 0.35 0.34 0.45 0.35 0.23 0.35 0.22 0.04 0.00 0.00 0.01 0.20 0.33 0.37 0.34 0.28 0.15 0.22 0.20 0.15 0.09 0.04 0.01 0.00 0.00 0.00 0.00 0.00 0.00 0.00 0.00 0.00 0.00 0.00 0.00 0.00 0.00 0.00